Theta_e
284 282 279 276 280 280 279 279 280 280 279 278 278 277 278 278 278 279 278 279 280 280 278 277 277 278 282 284 285 283 281 281 281 283 284 284 284 284 283 283 284 284 286 286 286 286 287 287 288 287 287 287 287 287 286 287 288 287 288 287 288 288 287 287 287 286 287 285 286 283 284 283 285 285 287 285 284 285 285 285 284 285 285 286 287 290
286 283 280 279 280 280 280 279 279 279 278 279 278 279 279 278 279 278 281 279 280 282 278 277 280 283 283 283 282 281 281 283 283 282 283 284 284 284 283 283 284 286 285 285 287 287 286 287 287 287 287 288 288 289 288 287 287 287 286 287 288 288 287 286 286 286 287 284 285 284 284 282 284 283 283 283 284 286 286 285 284 285 284 285 286 288
283 280 281 281 280 279 278 279 278 278 276 277 281 279 280 278 278 280 279 278 280 281 279 278 280 281 282 282 282 280 281 281 281 282 283 283 284 283 282 282 283 284 285 285 286 286 286 286 287 287 287 287 286 286 287 287 287 287 287 287 288 288 288 288 288 289 287 285 286 285 285 284 284 282 283 283 285 284 284 284 284 284 284 284 285 285
282 280 282 281 280 281 280 278 278 276 278 278 278 278 279 278 279 279 279 278 280 281 279 278 277 279 279 279 279 280 279 281 281 281 282 282 284 284 285 283 283 284 285 286 286 287 287 286 287 287 288 287 287 287 287 286 286 287 290 288 288 289 288 288 288 292 289 289 288 287 287 286 284 285 287 284 282 284 285 286 284 283 283 283 284 284
281 283 280 279 280 283 279 278 278 280 280 278 278 276 277 278 277 277 278 279 279 280 278 278 277 277 277 280 281 281 280 281 281 281 282 282 283 283 283 284 284 285 286 286 287 287 287 287 288 288 288 287 287 287 287 288 287 289 289 288 288 288 289 288 290 289 288 288 286 285 286 286 284 283 282 283 284 284 286 286 284 284 282 283 284 284
280 282 281 281 280 279 279 277 276 275 278 276 277 278 280 278 278 277 277 278 275 280 278 278 276 276 276 278 278 280 280 282 280 281 283 284 283 282 283 284 284 285 285 285 286 287 286 286 287 287 287 287 287 287 288 287 288 286 288 287 287 287 288 288 288 287 288 288 286 284 284 285 283 284 285 285 285 285 284 284 284 283 282 282 283 283
282 281 281 279 279 279 279 279 279 277 275 277 280 278 280 279 277 276 278 277 275 278 278 276 279 274 275 279 281 279 278 281 282 279 281 282 283 282 283 283 283 284 285 284 284 284 285 286 285 287 287 287 286 289 288 287 288 287 287 287 287 288 288 288 288 287 291 287 285 284 284 283 283 282 283 281 282 282 284 284 283 283 282 282 282 283
282 281 280 277 276 277 278 280 280 277 276 278 280 278 278 278 278 278 276 275 278 275 276 274 276 275 274 276 279 277 278 281 281 282 282 282 282 282 282 283 283 283 283 283 285 285 285 285 286 287 288 287 288 288 287 288 288 287 288 287 287 288 291 290 288 287 288 287 286 284 283 285 283 283 285 286 285 284 285 284 283 282 282 282 282 282
282 282 280 280 277 277 279 280 281 279 280 280 279 279 280 280 278 277 277 276 275 277 276 275 275 276 271 278 278 278 282 280 280 281 283 282 281 282 282 283 283 284 284 283 284 286 286 287 287 287 287 288 287 288 287 288 288 288 287 287 287 288 288 289 288 289 286 290 287 285 284 283 287 286 286 286 287 285 283 282 283 282 282 282 282 281
283 282 282 281 279 279 281 280 279 280 278 281 279 279 279 278 278 278 276 279 273 277 272 275 273 274 275 276 277 278 281 280 280 278 278 281 282 282 283 284 284 284 284 283 284 284 285 286 286 286 286 286 288 287 287 288 287 287 286 287 288 288 288 288 286 288 288 286 289 285 284 284 285 285 285 283 283 284 282 282 283 282 282 282 282 281
282 286 285 282 281 283 280 279 278 279 281 280 281 280 279 277 274 272 273 275 272 271 273 275 274 276 273 276 279 282 282 280 279 280 280 280 281 282 282 283 284 284 284 284 284 285 285 286 286 286 286 287 287 287 286 287 286 286 286 286 287 288 287 288 288 286 287 285 285 287 285 284 284 285 283 284 285 284 284 284 284 283 283 282 282 281
283 283 283 283 284 281 282 281 280 279 280 280 278 279 278 279 275 274 264 265 272 268 269 274 275 274 273 275 280 280 279 279 281 284 282 283 283 283 283 283 283 282 283 284 284 285 286 286 287 285 286 287 287 287 288 286 286 286 286 285 286 288 288 287 287 286 286 286 285 285 285 285 285 284 285 284 285 285 284 283 284 283 283 283 282 281
284 283 283 283 286 282 280 281 281 280 279 278 276 277 277 271 272 274 268 275 267 274 277 274 274 273 275 279 279 276 278 280 279 281 281 281 283 283 283 283 283 283 283 284 285 285 286 286 286 287 287 287 287 288 288 288 287 286 286 285 286 289 289 287 286 286 286 285 286 286 285 285 286 284 284 284 284 284 284 284 283 283 283 283 284 283
283 281 282 282 283 283 282 281 278 279 278 279 276 274 271 269 264 267 261 264 268 273 276 275 274 277 278 281 282 284 283 281 281 281 281 281 282 283 283 283 283 285 284 285 285 284 285 285 286 286 286 286 287 287 288 287 287 287 287 286 285 288 289 288 287 286 286 286 287 286 286 286 286 286 285 284 284 285 284 284 283 283 283 284 284 284
276 279 283 281 281 281 280 281 282 282 279 279 278 278 276 270 271 270 265 274 273 274 275 272 273 271 277 284 282 282 281 280 280 279 279 280 281 281 281 281 282 283 285 284 284 285 285 286 285 286 286 286 286 287 287 287 287 285 287 287 286 287 289 287 288 286 287 287 287 286 286 286 286 286 285 286 286 285 284 283 283 284 283 283 284 284
281 278 282 282 282 281 281 281 280 278 280 278 278 277 277 276 271 275 267 266 265 267 271 271 274 273 280 281 282 280 279 279 279 279 279 281 281 280 281 284 285 285 285 285 284 285 285 285 285 285 286 286 286 286 286 287 286 286 287 286 287 287 288 288 289 288 287 288 287 286 286 287 287 289 288 287 287 286 285 285 284 284 284 284 283 284
276 282 281 280 282 280 282 281 281 281 279 279 279 273 277 278 275 267 267 265 267 266 269 267 277 279 281 283 282 278 281 284 281 281 280 282 282 280 282 284 284 285 285 285 284 285 286 286 286 286 285 286 286 286 287 288 287 286 287 286 287 288 287 288 288 288 287 287 286 287 286 286 285 286 286 287 287 286 286 285 285 284 285 284 283 284
277 278 280 282 283 283 279 280 280 280 282 279 276 280 279 278 275 274 274 262 261 267 270 270 273 276 278 278 280 282 282 283 281 281 280 280 280 281 285 285 285 285 285 284 284 284 285 285 285 286 286 286 286 287 287 288 286 286 286 286 286 287 288 289 288 288 288 287 287 288 288 287 286 287 286 286 286 286 285 285 285 284 284 284 285 285
280 277 282 280 280 281 280 281 282 281 282 281 281 278 282 273 277 270 269 270 270 266 268 273 272 273 276 280 279 284 283 281 280 280 279 283 284 284 284 285 284 284 283 284 284 285 287 286 286 286 287 287 286 286 286 287 287 286 285 285 285 287 288 288 288 288 288 288 288 289 289 288 288 286 286 286 286 285 285 286 285 284 285 285 284 285
279 276 277 279 280 282 281 280 277 279 281 276 281 280 275 277 273 271 273 270 272 268 269 274 270 279 277 277 278 282 281 281 280 280 282 283 283 283 283 284 284 285 285 285 285 286 287 287 287 287 287 287 287 287 287 286 286 286 286 285 286 286 286 286 287 287 288 288 287 288 287 288 287 287 287 286 286 286 285 286 286 286 285 285 285 285
277 279 274 280 277 280 280 278 279 278 278 279 277 275 278 271 274 275 270 273 274 263 264 264 272 275 280 279 281 280 279 282 281 284 283 283 283 282 282 283 284 283 284 285 286 286 287 287 287 287 286 286 286 286 286 286 286 287 286 286 286 286 286 286 287 287 288 287 287 286 287 288 287 287 286 286 285 286 286 286 287 286 286 284 285 285
274 276 276 275 278 278 277 279 278 278 278 278 278 279 276 274 272 274 273 267 263 271 266 262 275 278 285 281 283 284 283 280 280 281 282 283 283 283 283 283 282 283 284 285 286 286 287 287 287 287 286 285 284 286 286 287 285 285 286 287 286 285 286 287 288 288 288 287 287 287 288 288 287 287 286 286 286 286 287 287 287 286 284 285 286 284
280 273 276 274 276 279 279 279 277 277 276 274 278 279 277 276 272 269 270 271 268 267 264 265 267 278 284 280 280 282 280 279 279 278 281 283 282 283 283 284 283 283 284 286 286 286 287 286 286 286 286 286 286 286 286 286 286 286 286 286 285 285 287 287 288 288 287 287 287 287 288 287 287 287 286 285 287 287 287 287 287 286 285 286 286 285
285 271 271 275 273 275 277 276 277 277 277 277 276 275 277 278 279 275 274 273 269 268 269 266 267 279 284 280 279 280 279 279 279 278 280 282 283 283 283 284 284 285 286 285 285 285 286 286 285 285 285 286 286 286 286 286 286 286 286 286 285 285 287 287 287 287 286 286 287 287 286 287 287 286 286 286 287 287 287 287 287 286 285 286 286 285
277 276 276 270 267 270 272 276 275 273 274 275 276 276 276 276 274 273 271 268 273 270 272 273 271 277 281 281 279 279 279 280 281 281 280 281 283 284 284 285 285 286 286 286 286 286 286 285 285 286 286 286 286 286 286 286 286 286 286 286 286 287 287 287 287 286 286 285 286 286 286 286 286 286 286 287 287 287 287 287 287 286 286 286 286 286
278 275 274 273 273 271 271 272 272 273 276 275 274 276 276 277 275 275 275 268 271 268 272 268 272 283 282 281 282 282 281 283 284 284 282 281 283 285 286 286 286 286 286 286 286 286 286 287 286 286 286 286 286 286 286 286 286 286 286 287 286 287 287 287 286 286 286 285 285 286 286 286 286 286 286 287 287 287 287 287 286 286 286 285 286 286
271 272 275 272 274 276 279 278 280 281 277 276 277 275 277 276 276 276 274 268 274 269 273 277 280 285 286 288 287 287 283 284 287 287 286 287 285 284 284 285 285 286 286 286 286 286 285 285 286 286 286 286 286 286 286 286 286 286 286 287 287 287 287 287 286 286 285 285 285 285 286 286 287 287 287 287 287 287 286 286 286 285 286 286 285 285
270 274 274 274 277 280 280 280 280 281 279 279 278 277 277 277 276 277 276 276 276 273 276 279 281 280 283 285 286 287 289 288 287 287 287 286 286 286 287 285 287 285 285 285 285 285 285 285 286 286 286 286 287 286 286 286 286 286 287 287 288 287 286 287 286 285 285 285 285 285 286 287 287 287 287 287 286 286 286 286 286 286 286 285 285 285
272 273 275 275 274 276 277 277 277 277 278 279 278 278 276 277 275 277 279 279 277 278 281 281 276 277 283 285 287 288 289 288 288 288 288 287 286 286 285 285 285 285 285 285 286 286 285 286 286 287 287 287 286 286 287 286 286 286 285 285 286 286 286 287 285 285 285 285 285 286 287 287 286 286 286 286 285 285 286 286 286 285 285 284 285 285
275 269 271 273 275 277 279 278 277 276 276 276 277 278 279 277 277 279 280 279 279 281 283 283 283 282 285 286 288 289 290 288 288 288 287 286 286 286 285 284 285 285 286 286 287 287 286 286 287 287 287 287 287 287 287 287 287 287 286 287 286 286 287 285 285 285 285 285 286 287 286 286 285 286 285 285 285 286 286 285 285 285 285 285 285 284
277 272 278 268 271 272 274 275 274 275 274 275 278 278 278 278 278 279 279 279 278 279 281 281 280 280 285 288 287 288 288 287 286 285 286 286 285 284 284 284 285 286 287 287 287 287 287 287 287 287 286 287 287 287 287 287 287 287 286 286 286 287 287 284 285 285 285 286 287 286 286 285 285 285 285 285 285 285 285 285 285 284 284 284 284 284
276 272 269 267 273 272 272 272 274 274 274 274 276 278 277 276 275 277 277 279 278 278 279 277 276 279 285 287 284 284 284 283 284 286 286 287 285 284 284 286 286 287 287 288 288 288 288 288 288 288 288 288 288 287 287 287 288 286 287 287 287 287 286 284 285 285 286 286 286 286 285 285 285 285 285 285 285 285 285 285 284 284 284 284 284 284
271 270 273 268 274 269 271 271 273 275 279 282 282 283 280 278 279 277 279 279 281 282 278 276 279 286 287 284 284 287 286 285 285 286 286 287 287 285 285 287 288 288 288 288 288 289 289 289 289 289 289 288 289 289 289 288 287 287 288 288 288 286 285 285 285 285 286 286 286 286 286 285 285 285 285 285 285 285 285 284 284 284 284 284 284 283
271 270 266 268 273 267 267 270 272 276 275 278 281 283 279 278 278 278 279 279 280 282 281 283 286 287 284 285 285 286 287 289 289 288 286 287 288 288 288 287 287 288 288 288 288 288 289 289 289 289 289 289 289 289 289 287 287 289 289 288 286 284 285 285 285 285 286 286 286 286 286 285 285 285 285 285 285 284 284 284 284 285 285 284 284 283
271 268 268 267 271 271 271 274 275 271 277 283 282 281 280 282 281 282 283 282 281 282 284 283 285 285 287 287 287 288 288 289 288 287 288 288 287 287 288 288 288 288 289 289 289 289 289 289 289 289 288 289 289 288 287 287 287 287 286 286 285 285 285 285 285 285 285 285 286 285 285 285 285 285 286 285 285 284 284 284 284 284 284 284 284 284
272 271 267 269 264 268 271 266 268 272 277 284 284 280 280 280 280 281 281 284 284 282 282 282 285 286 287 287 288 288 285 284 285 287 288 289 289 288 287 288 289 289 289 290 290 290 290 290 289 290 290 290 288 288 287 288 288 285 287 285 285 285 285 285 285 285 285 285 286 286 286 285 285 286 285 285 284 284 284 284 284 284 284 284 284 284
276 272 270 271 267 271 265 262 276 277 283 286 283 282 281 281 280 280 277 282 282 283 283 283 284 285 286 286 287 287 282 282 283 288 291 290 290 289 289 289 290 291 291 291 290 291 291 291 290 290 290 289 289 288 288 289 288 287 287 286 287 285 286 285 285 285 285 286 286 286 286 286 285 286 286 285 285 284 284 284 284 284 284 284 284 284
275 275 271 275 272 265 270 268 268 270 270 278 280 282 282 282 282 281 282 283 287 285 285 285 284 286 286 287 287 284 283 283 285 288 293 287 288 289 288 288 289 289 289 290 290 289 289 289 289 289 288 287 287 288 288 287 287 286 286 287 287 286 286 286 286 286 286 287 287 287 286 286 286 285 286 285 285 285 285 285 285 285 284 284 284 284
271 271 270 274 270 267 267 266 264 266 276 280 283 285 283 280 281 280 282 283 286 284 285 286 286 286 287 287 285 283 284 283 285 288 292 292 287 286 287 288 288 289 289 289 289 290 290 290 288 287 286 286 286 288 288 286 285 285 286 287 287 287 286 286 287 287 287 288 288 287 286 286 286 285 285 285 286 286 285 285 285 285 284 284 284 285
271 264 267 269 266 265 264 264 270 269 276 279 280 282 283 279 281 284 279 277 281 280 284 285 286 287 287 286 283 283 284 285 287 291 291 290 288 287 285 289 289 289 289 289 288 288 288 287 286 287 287 287 288 289 288 286 285 285 286 287 287 287 287 287 288 289 288 288 287 287 286 286 285 285 285 285 286 286 286 285 285 284 284 284 284 284
269 269 268 273 268 270 275 270 264 272 278 281 282 282 281 279 284 277 275 284 282 280 283 285 286 288 287 284 283 285 285 290 294 295 292 288 288 290 288 287 287 288 289 289 290 289 288 287 287 287 288 290 290 290 288 286 285 286 287 287 287 287 288 289 289 288 288 287 287 286 286 286 285 286 286 286 286 286 285 285 284 284 284 284 283 283
265 263 265 264 266 272 270 269 272 274 280 285 282 285 282 283 276 278 286 284 283 284 281 285 286 286 285 286 285 287 291 291 290 289 288 289 289 289 289 289 288 288 288 287 287 287 288 288 287 287 288 288 289 289 288 286 286 286 287 287 287 288 290 290 289 288 287 287 287 287 286 286 286 285 286 286 285 284 285 285 284 284 284 284 283 283
275 272 268 268 266 261 263 265 267 270 279 283 284 284 284 281 283 288 284 284 283 284 281 283 285 287 284 285 286 288 288 288 288 288 289 289 289 289 290 289 289 289 290 290 289 289 288 288 288 288 288 290 289 290 290 287 286 286 286 286 288 290 290 290 289 288 287 287 287 287 287 286 286 285 285 285 285 284 284 285 284 284 283 283 282 282
278 273 264 266 272 271 268 269 273 281 281 286 288 283 284 288 292 287 285 292 286 283 284 286 284 285 286 286 288 288 287 287 287 288 289 289 289 290 289 289 289 289 289 288 288 288 287 287 288 289 289 289 289 290 290 288 287 287 287 287 289 290 290 289 288 287 287 286 286 287 287 286 286 286 285 285 284 284 284 284 284 284 283 283 282 282
281 282 278 278 277 276 274 277 282 279 282 287 290 291 289 291 292 291 288 288 289 290 286 287 290 288 285 286 287 286 287 288 288 289 288 289 289 289 289 290 290 290 290 290 290 289 287 288 288 289 289 288 288 289 289 289 287 287 287 288 289 289 289 289 288 287 286 286 287 287 287 287 286 286 285 285 284 283 283 283 283 283 283 282 282 282
279 284 278 281 277 279 283 283 283 283 282 285 288 289 289 290 290 289 288 289 289 290 290 290 291 291 290 287 286 288 289 290 289 289 289 289 289 289 289 289 289 290 290 290 289 289 288 288 287 287 287 288 287 288 288 288 288 287 288 290 289 289 289 288 287 287 287 286 287 287 287 287 287 286 285 285 284 284 284 284 284 283 283 282 283 282
279 280 281 278 278 280 282 283 285 287 288 289 289 290 290 290 290 291 290 290 291 291 291 290 289 290 289 288 287 288 289 289 289 289 289 289 289 288 288 289 289 289 289 289 290 289 288 288 288 288 288 288 288 287 288 287 288 288 289 289 289 289 288 287 287 286 286 286 287 287 287 286 287 287 286 285 284 284 284 284 284 284 283 283 283 283
281 282 283 282 280 283 285 282 284 287 289 289 288 290 290 291 291 291 290 290 291 292 291 290 289 288 288 287 288 288 288 289 288 288 289 289 289 289 289 289 289 289 289 289 289 288 288 287 287 287 287 288 289 289 288 287 287 288 288 289 289 288 287 287 286 286 286 287 287 287 287 287 285 286 286 286 285 284 283 283 283 283 284 284 284 284
282 283 278 280 282 284 285 286 286 288 290 290 290 289 292 293 293 293 293 291 289 289 289 289 288 288 288 288 289 288 287 288 289 288 288 289 289 289 289 289 289 288 288 288 288 288 287 287 287 287 287 287 288 288 288 288 288 288 288 289 289 288 287 287 286 286 286 286 286 286 287 287 287 287 286 286 286 285 286 285 284 284 284 286 287 287
282 281 280 279 280 281 283 284 284 283 285 289 289 292 293 293 291 291 290 288 289 289 290 289 288 286 286 287 287 287 286 288 289 288 288 289 289 289 289 288 288 288 287 288 288 287 287 287 287 287 287 288 288 288 287 287 288 288 288 288 288 288 287 287 287 286 286 286 286 286 286 286 286 286 286 286 285 285 285 285 286 287 286 286 286 286
286 284 282 283 283 283 288 286 290 291 291 292 291 289 288 286 286 288 289 288 287 287 287 286 286 287 287 286 286 285 286 287 288 289 288 288 289 290 289 288 287 287 287 287 287 287 287 287 287 287 287 288 288 288 287 287 287 287 288 288 288 287 287 287 286 287 287 286 286 286 286 286 286 287 286 286 285 285 285 286 286 286 286 286 286 286
Wind_Speed
0 10 7 2 1 3 3 2 1 1 3 4 3 3 0 2 6 3 3 2 1 3 4 3 3 6 12 12 10 6 4 3 5 7 7 7 7 7 6 6 7 6 9 5 6 7 7 8 7 5 4 5 5 5 3 4 4 3 3 3 5 4 3 3 5 4 3 4 7 3 5 5 6 6 5 5 6 6 6 6 6 7 6 7 7 8
5 10 5 2 2 3 2 2 3 4 3 2 3 1 1 2 4 2 1 3 6 3 3 1 6 11 11 8 7 5 1 6 6 6 7 9 6 6 6 8 7 7 6 7 8 7 5 6 6 5 4 3 5 6 2 4 5 4 3 4 6 4 3 3 3 3 2 2 1 2 5 3 6 6 6 6 6 6 6 5 6 6 6 7 6 6
9 6 1 2 2 3 3 4 2 3 2 1 0 1 0 1 6 7 1 3 3 0 6 4 8 12 12 8 8 3 3 4 3 4 4 3 7 6 5 6 7 6 8 7 7 6 5 6 7 5 5 5 2 6 6 5 5 5 4 5 5 5 4 4 3 2 3 2 1 1 3 2 5 3 3 2 5 3 4 4 5 5 6 7 6 6
6 2 1 1 4 2 4 4 4 5 4 3 2 4 3 3 4 2 1 6 4 1 3 5 7 10 8 5 5 4 2 4 4 4 7 5 7 8 7 5 5 6 7 8 7 8 9 7 7 6 6 5 5 5 5 4 5 4 5 4 4 5 4 4 3 3 3 3 3 3 4 3 4 5 4 4 3 3 5 6 4 4 5 6 5 6
5 0 2 3 1 1 2 3 3 1 0 2 3 2 1 3 2 2 5 7 5 1 1 5 1 6 3 1 3 1 3 3 3 6 5 4 6 6 6 7 6 8 7 8 9 9 7 8 8 7 8 6 6 6 6 6 4 3 5 5 4 5 4 4 4 4 3 2 2 1 2 2 2 1 2 3 3 2 3 5 5 6 4 4 5 5
3 0 1 1 3 3 1 3 3 1 1 2 1 2 0 1 3 4 5 8 4 1 3 4 4 2 3 5 7 8 7 6 3 5 7 7 5 2 4 6 5 5 5 7 9 8 8 8 9 9 8 6 6 7 6 4 5 4 6 4 4 4 4 5 5 3 1 1 1 3 4 6 4 5 6 5 6 9 7 5 5 5 2 3 3 4
2 2 2 1 3 4 3 3 1 1 1 1 1 2 1 1 1 2 6 2 2 1 4 2 3 4 4 4 2 3 6 8 8 3 7 6 6 4 4 4 5 5 7 4 5 7 7 8 5 8 7 6 6 8 5 5 5 5 6 5 4 4 4 4 5 3 1 1 1 2 3 3 3 3 5 4 3 4 6 4 5 5 4 1 2 3
1 2 5 4 3 3 4 6 0 2 2 0 0 4 3 1 0 1 1 1 1 1 3 5 4 1 5 4 3 3 4 7 8 8 6 5 4 4 4 4 4 5 4 5 7 8 6 7 6 8 9 7 7 7 7 7 6 5 5 5 5 4 4 4 4 3 3 3 3 2 3 3 4 5 7 6 6 3 3 5 6 4 4 3 1 1
2 1 3 4 5 5 2 1 0 1 0 1 2 3 0 1 1 2 1 0 0 1 2 7 4 1 3 7 3 3 3 4 7 7 5 4 4 4 5 6 5 5 5 4 5 7 7 8 8 6 7 8 8 7 6 6 6 6 5 5 4 6 5 4 4 4 3 3 3 4 3 4 5 5 7 5 4 6 2 4 5 4 4 3 3 1
1 1 1 2 3 3 2 0 1 4 1 0 3 3 3 3 2 1 1 1 2 2 2 4 5 1 7 6 5 2 1 6 7 4 4 5 4 5 6 7 6 6 5 4 5 7 8 8 7 6 6 9 8 6 5 6 5 5 4 4 4 7 4 4 3 3 4 4 3 4 4 6 7 4 6 3 6 6 3 5 5 3 4 5 4 3
0 3 4 3 1 0 1 1 1 1 1 2 2 0 1 2 1 1 4 1 2 1 2 2 4 1 4 4 5 1 1 2 2 3 5 5 5 6 6 7 7 6 6 6 7 7 8 7 8 6 7 8 8 5 4 5 4 4 4 4 5 7 4 3 4 3 4 4 4 5 6 6 7 6 5 6 7 5 4 4 6 5 5 3 5 4
0 0 0 0 2 1 1 1 1 0 0 1 1 1 2 1 2 1 2 2 2 3 3 2 1 2 1 4 5 8 3 4 4 3 3 4 5 5 5 5 5 5 5 7 7 9 8 9 7 3 5 6 7 7 6 4 4 4 4 3 5 8 4 2 3 3 4 4 5 5 5 7 7 6 5 6 7 6 5 5 6 6 6 6 4 3
2 2 0 2 2 3 2 1 0 1 3 2 1 4 1 4 5 1 7 2 0 1 1 0 0 1 6 9 3 2 6 5 7 7 5 4 5 6 6 6 6 6 6 7 7 7 8 7 7 7 8 7 6 7 7 7 5 5 4 3 4 9 6 3 2 4 4 4 5 6 6 6 5 5 6 6 7 5 5 5 5 5 6 6 6 4
1 1 3 3 1 1 1 2 4 1 1 5 3 2 5 4 5 1 3 2 5 4 0 0 1 2 5 8 8 10 9 5 5 8 8 6 7 7 6 6 7 9 7 7 7 7 7 7 7 6 6 6 7 7 7 7 5 5 5 4 3 9 7 5 4 4 4 5 6 5 6 6 5 5 5 6 6 6 5 5 6 6 6 6 6 7
1 2 1 3 1 3 3 1 0 0 1 0 2 0 4 6 1 0 1 1 2 6 5 3 1 4 2 1 3 10 5 4 5 6 6 6 8 7 7 7 8 8 8 5 5 7 7 9 6 7 7 7 7 7 8 6 5 4 5 4 5 7 8 5 5 4 5 6 4 5 5 6 4 6 6 6 6 6 5 5 6 6 6 6 7 6
0 4 1 1 2 1 2 0 1 2 1 1 1 1 5 1 3 0 1 2 2 4 7 0 4 3 3 2 5 2 6 7 4 6 3 7 5 4 5 7 7 7 7 6 5 7 8 7 6 6 7 7 7 7 6 7 6 4 5 4 5 6 8 8 6 6 5 6 4 4 5 6 5 5 5 5 5 6 5 6 6 7 6 6 6 6
2 0 0 6 2 2 0 0 1 0 0 1 1 2 2 1 7 6 1 0 1 2 6 1 8 5 9 4 2 5 4 7 4 5 4 7 5 3 6 8 7 7 7 7 6 5 7 7 6 5 6 7 7 7 7 7 6 5 5 5 6 6 6 7 6 6 5 5 5 6 4 4 4 5 6 7 6 6 5 6 6 6 7 5 5 6
1 3 1 2 0 0 1 0 0 0 0 1 3 1 2 2 3 2 1 2 5 2 4 3 3 10 7 1 4 4 4 9 5 6 6 7 6 6 8 7 8 8 7 6 7 7 7 7 8 8 7 7 8 8 8 9 5 4 5 5 6 7 8 9 5 5 5 5 6 6 6 4 5 5 6 6 6 5 4 5 6 5 6 7 6 6
1 1 0 0 1 4 2 0 1 1 0 1 4 3 1 1 1 3 2 3 4 3 6 7 3 8 5 6 3 1 2 4 5 4 4 7 7 8 8 9 8 7 6 8 7 7 6 6 7 7 8 8 8 8 8 9 6 5 5 5 6 8 8 8 7 6 6 5 6 5 6 6 5 4 5 5 5 4 5 7 6 6 8 6 5 6
1 1 2 0 2 2 1 1 1 1 2 1 0 2 0 2 1 1 0 1 4 3 6 7 4 5 7 6 6 4 7 6 5 4 6 8 8 7 7 7 7 7 6 7 8 8 8 8 9 9 9 9 9 7 7 6 5 7 7 5 6 6 7 6 8 7 7 7 4 6 5 6 5 5 4 5 4 6 6 7 6 6 5 8 5 6
0 0 1 1 2 1 0 2 1 1 1 1 2 1 1 2 1 2 1 1 0 2 2 1 9 8 9 7 7 8 6 7 8 7 6 7 8 7 7 7 6 6 7 7 8 9 10 10 10 10 8 8 7 6 7 7 8 8 5 6 6 7 7 7 8 5 7 5 5 4 6 7 5 6 4 4 4 6 7 7 6 7 7 4 6 5
1 1 1 4 4 0 2 0 1 0 0 0 0 1 5 4 1 0 4 1 2 1 2 2 9 9 12 4 9 8 7 4 6 5 6 7 8 8 8 8 7 8 8 8 8 8 10 10 11 11 9 6 5 8 8 8 5 7 7 7 5 4 7 7 7 6 6 5 5 5 6 7 5 6 4 5 5 6 7 7 7 6 4 6 7 5
1 2 1 4 2 1 0 0 0 0 1 0 1 1 1 1 4 4 0 2 1 0 3 2 0 12 7 3 4 6 3 4 5 4 8 8 8 9 10 9 8 8 10 11 9 9 9 9 10 10 11 11 9 9 8 8 7 8 7 5 5 5 9 7 8 5 4 5 5 7 6 5 6 5 5 5 6 7 8 7 7 5 6 7 7 5
4 1 3 5 4 3 0 1 1 1 1 1 0 0 1 1 0 2 1 3 4 1 1 1 2 12 7 1 4 4 5 5 5 5 9 9 9 10 10 10 10 9 9 8 8 9 9 8 8 8 10 10 9 8 8 8 7 7 7 7 5 6 9 7 6 6 5 5 6 6 5 6 7 6 6 6 7 7 7 7 6 5 6 7 6 6
0 1 3 3 4 3 1 1 1 0 1 1 2 2 1 2 4 2 4 1 0 7 8 8 7 8 3 2 3 3 4 5 7 7 8 9 9 9 9 9 9 9 10 11 10 10 9 8 8 8 7 8 9 8 8 8 8 7 8 6 7 8 8 7 6 5 6 5 6 6 6 7 6 6 7 8 7 8 7 7 6 5 6 6 7 7
0 1 1 1 1 3 4 4 2 2 1 2 0 1 2 5 7 2 1 1 2 2 4 3 9 13 5 4 4 5 4 8 8 8 5 8 9 10 10 10 10 8 10 10 11 10 11 10 8 8 8 8 8 8 8 8 7 8 8 9 7 8 8 8 5 5 5 5 6 7 6 7 6 7 8 8 7 8 8 7 5 6 5 5 7 6
1 0 1 4 6 7 8 3 0 2 1 2 2 4 5 2 1 2 5 4 7 4 7 12 10 18 21 18 11 10 5 8 13 10 9 8 7 9 9 10 9 10 10 11 10 11 9 10 11 10 9 9 8 8 8 8 9 8 8 10 9 8 8 9 5 5 5 6 6 6 7 7 8 8 7 7 8 7 6 6 6 5 7 5 6 7
2 1 3 2 6 8 2 4 2 2 5 6 5 6 6 7 7 8 9 9 6 7 10 7 11 9 20 14 14 16 16 12 9 9 10 8 8 8 9 8 10 10 10 9 9 11 11 11 10 10 11 10 10 8 9 9 9 10 9 10 9 7 6 7 6 6 6 6 6 7 9 8 8 7 8 7 6 6 7 7 7 7 6 5 6 7
2 2 1 1 5 6 6 8 3 3 5 6 6 5 6 8 7 11 13 6 9 6 15 3 4 5 17 13 16 18 17 13 13 17 14 10 10 10 10 11 11 11 11 10 12 10 8 10 10 10 10 11 9 10 11 10 9 8 8 8 9 8 9 8 6 7 6 6 7 9 9 7 6 6 6 6 6 7 8 8 7 7 6 6 7 7
2 3 2 1 5 7 10 5 2 5 4 4 9 11 10 11 16 17 16 7 13 15 17 15 15 20 22 21 22 21 17 12 14 13 13 13 12 10 10 11 11 12 12 12 12 10 8 10 11 11 11 11 10 11 10 10 10 9 8 8 8 7 10 5 7 7 7 8 9 9 7 7 6 7 6 6 7 8 8 7 7 7 7 7 7 7
1 3 4 0 1 5 3 4 0 1 3 9 12 12 12 13 12 14 9 8 7 14 19 21 17 22 24 20 14 17 14 11 10 13 14 13 8 8 9 12 12 12 13 12 11 10 10 10 10 10 10 12 11 11 11 10 10 9 8 8 9 9 9 4 6 7 8 10 9 8 7 6 8 6 7 8 7 7 8 9 7 7 8 8 7 8
0 2 2 1 3 6 1 5 7 5 7 11 19 13 13 9 8 10 11 11 9 15 11 3 7 14 20 11 4 9 9 8 11 13 13 12 6 6 9 12 13 13 12 13 12 10 11 12 11 10 11 11 11 10 9 10 10 7 10 10 9 10 6 5 7 8 9 10 9 8 8 8 7 7 9 7 9 9 9 7 7 8 8 8 8 8
3 3 1 1 2 6 3 1 7 9 10 12 11 6 9 11 6 1 6 4 15 10 4 6 13 15 9 2 4 11 8 8 10 11 10 10 9 6 9 12 13 13 13 13 13 13 13 13 12 11 12 10 11 11 11 10 7 10 12 10 11 5 5 7 7 8 9 9 9 9 9 8 8 9 9 9 9 8 7 8 8 9 9 11 9 5
2 3 1 1 1 4 2 8 3 5 7 9 3 4 7 7 13 11 9 14 15 13 11 9 14 11 7 10 9 14 13 14 9 6 4 6 10 13 13 11 11 13 13 13 13 13 14 13 11 12 12 12 12 11 11 6 9 12 10 8 6 5 6 6 8 8 10 9 9 9 9 8 8 10 10 9 8 8 8 8 11 10 8 8 6 8
4 2 1 1 1 5 6 7 5 6 12 5 2 6 5 5 11 15 15 10 11 17 16 13 18 17 18 14 13 14 13 10 10 14 13 12 8 10 14 16 14 12 13 13 14 14 13 13 12 12 12 13 13 11 7 9 10 10 8 8 7 7 7 7 8 8 8 9 10 9 9 9 9 11 11 9 8 8 9 10 10 9 9 8 9 9
6 6 3 0 2 1 1 1 1 10 5 13 8 2 2 3 1 1 8 16 15 17 19 19 22 21 17 15 15 12 4 5 8 15 14 14 12 11 11 12 14 12 11 12 12 13 13 12 13 13 14 11 7 9 7 10 9 6 10 5 6 7 7 8 8 10 7 10 12 11 10 9 10 11 11 10 9 9 11 10 11 11 9 8 9 8
6 4 3 2 1 3 3 2 11 10 17 12 5 1 5 3 5 5 4 9 5 10 15 16 19 18 17 17 15 10 2 2 4 13 11 9 11 10 13 15 13 13 12 12 11 14 13 12 11 14 11 9 9 8 10 10 7 7 8 8 9 7 8 8 10 10 10 11 12 11 10 10 10 11 11 10 10 11 11 11 11 10 7 8 9 9
1 4 3 4 3 4 3 6 5 3 4 9 8 2 3 1 3 2 3 13 6 11 15 16 14 17 16 14 13 5 0 2 7 9 12 5 8 9 9 11 11 11 12 13 12 10 11 12 12 11 9 11 11 12 11 9 7 7 8 11 11 9 10 8 12 11 11 12 13 11 10 10 10 11 11 10 12 13 12 10 8 9 7 9 10 10
4 5 3 6 2 4 2 4 4 4 9 7 1 0 1 3 3 2 5 13 7 5 12 14 15 15 13 12 7 3 1 6 9 8 12 11 6 6 8 9 10 11 11 11 12 13 13 12 8 8 8 8 11 15 11 7 5 6 10 11 13 10 10 11 13 12 13 13 12 10 10 10 10 11 12 12 13 11 12 12 11 9 7 9 9 10
4 2 2 1 2 4 4 3 8 6 8 2 2 1 1 3 2 3 8 9 5 1 8 11 13 12 11 10 3 3 4 11 13 10 6 7 5 5 5 9 9 10 10 10 10 11 11 9 9 10 11 12 15 13 10 7 5 8 11 14 12 12 14 14 15 14 11 11 10 9 9 9 10 11 11 13 12 11 12 10 8 9 9 8 8 9
1 0 2 10 4 4 7 8 5 8 8 12 8 5 2 3 1 2 9 13 4 4 7 10 11 12 8 5 7 6 10 13 16 15 7 7 10 12 8 7 10 10 13 13 13 11 10 9 8 12 14 13 14 12 9 6 6 10 12 13 12 16 17 16 13 11 11 10 9 10 11 10 10 13 12 12 12 10 10 9 10 9 8 9 8 8
1 2 1 4 4 10 7 7 10 8 10 14 2 9 6 2 2 10 10 2 3 5 6 11 10 10 6 8 8 10 11 10 10 9 11 11 11 12 11 12 11 11 10 10 13 12 12 10 9 12 12 12 13 12 9 7 9 11 12 11 15 19 17 14 12 11 9 10 11 11 11 11 11 11 11 10 10 10 11 11 10 9 9 8 7 9
11 9 7 7 3 3 1 1 5 7 6 5 9 4 1 4 10 8 4 4 4 3 4 6 9 10 6 8 10 12 12 11 10 13 14 12 12 14 14 13 14 15 16 14 13 11 10 12 11 12 12 12 10 10 11 7 10 11 11 13 18 18 15 14 11 11 11 10 11 12 12 11 11 11 9 10 10 11 12 10 9 10 8 9 8 9
7 4 3 5 8 8 8 10 10 13 3 11 16 8 8 16 10 5 2 12 5 4 6 5 6 9 7 9 13 11 10 10 12 13 15 14 12 13 12 12 13 14 13 11 11 13 11 12 13 13 11 9 10 11 11 8 12 12 12 17 17 15 15 14 13 10 11 11 11 12 12 11 10 10 10 10 9 10 11 11 10 9 9 9 9 9
13 11 9 8 8 10 11 13 12 4 5 12 12 9 6 16 16 11 6 8 9 9 5 6 12 7 6 9 12 10 12 13 13 15 14 17 14 13 14 16 15 16 17 16 15 13 9 11 16 15 13 8 9 11 10 9 12 15 15 18 14 15 15 15 12 10 10 11 11 12 12 11 10 10 9 9 9 10 10 11 9 10 9 8 9 10
2 8 2 0 7 5 12 6 1 2 5 13 14 11 11 11 8 7 10 12 9 11 9 12 14 14 11 7 9 14 15 16 16 15 14 15 14 14 13 14 15 14 15 15 15 14 11 10 12 12 14 14 7 12 10 10 10 15 19 16 13 15 15 13 11 12 12 11 11 13 13 13 13 10 11 11 9 11 10 10 10 10 9 8 10 10
5 3 2 5 2 1 13 4 14 18 17 20 15 13 14 13 15 13 10 13 16 14 13 11 13 13 11 10 9 14 20 18 16 16 14 15 15 13 13 15 15 14 14 17 18 14 14 11 13 15 14 16 11 9 9 8 10 13 16 16 15 15 14 12 11 13 12 12 13 13 12 13 13 11 10 9 9 9 10 10 10 10 10 10 10 11
5 7 9 9 3 11 14 7 9 10 16 9 2 9 11 13 15 13 13 15 17 15 12 14 11 10 9 11 13 12 17 17 14 17 17 16 15 14 13 14 15 15 14 12 15 14 13 12 13 16 15 15 15 11 9 8 10 12 14 15 15 14 13 11 11 13 13 13 12 12 11 12 15 14 11 11 9 10 10 10 10 11 13 13 13 12
5 8 7 4 8 14 11 15 12 14 23 23 14 12 16 18 18 20 17 13 12 13 14 13 9 11 10 13 12 11 14 18 16 15 17 17 15 14 14 14 14 14 14 14 15 11 13 15 16 17 15 16 14 12 10 10 11 11 13 15 14 14 13 13 11 12 13 12 11 13 12 12 12 11 12 12 10 11 11 11 11 13 13 14 11 12
7 9 2 2 9 10 16 8 8 6 15 16 7 18 20 18 14 16 14 9 13 16 15 13 11 6 8 11 11 11 13 16 17 14 16 16 16 17 16 15 14 13 13 13 12 11 12 14 14 16 17 16 14 12 11 11 11 11 12 12 13 12 12 13 13 12 13 10 11 12 11 11 11 11 11 11 11 11 12 14 17 15 13 14 14 21
15 11 8 13 11 16 19 7 11 16 20 22 11 6 8 5 5 11 15 10 10 12 11 9 13 12 9 10 8 10 13 15 18 16 15 15 17 16 15 14 15 14 14 13 12 14 13 14 15 16 17 17 13 12 11 10 11 11 13 11 12 11 11 11 12 13 13 10 11 12 11 11 12 11 10 11 10 10 12 12 11 19 24 24 20 17
Wind_Direction
6 76 62 96 285 295 279 221 85 125 115 105 94 106 210 253 285 284 280 259 314 304 257 240 291 282 280 277 279 293 332 284 270 268 267 269 272 275 276 273 274 276 255 283 294 282 284 287 282 281 290 300 302 279 288 314 300 286 276 329 298 289 316 333 324 337 4 339 336 345 355 331 324 329 339 347 350 352 344 345 359 0 359 357 357 358
71 72 8 236 242 254 276 224 123 68 50 110 107 120 294 197 274 237 279 3 339 50 288 21 320 289 276 284 282 311 344 271 245 259 270 270 271 273 271 277 269 262 300 310 316 307 309 302 305 310 303 332 336 314 331 294 281 287 288 261 266 292 297 273 238 248 270 221 197 230 271 287 302 319 345 336 342 344 334 347 360 356 354 359 2 358
46 85 265 276 183 108 82 80 103 121 116 39 246 195 77 277 253 293 285 356 325 65 268 3 339 289 286 288 301 288 253 256 236 214 245 268 288 280 273 265 276 303 292 311 288 291 295 310 312 317 307 304 251 277 287 277 282 277 267 248 248 261 269 265 244 222 246 231 212 172 260 272 298 256 225 255 281 313 327 346 357 352 356 356 355 2
54 339 292 141 145 106 36 41 77 73 67 74 29 45 316 280 23 331 310 353 340 64 277 342 318 288 297 289 272 265 223 274 280 259 262 238 256 264 265 267 286 290 292 293 292 297 305 308 299 308 307 308 317 294 290 271 255 264 258 255 249 252 248 260 250 236 235 233 241 231 244 254 193 261 309 312 292 321 352 354 347 357 356 349 348 356
127 279 155 101 90 151 100 33 68 117 356 351 85 112 347 336 310 198 283 325 298 12 35 308 295 312 335 342 325 314 327 324 311 339 306 268 235 266 290 287 239 256 271 286 301 302 307 318 308 303 294 307 298 290 279 280 264 249 256 250 246 250 251 256 258 247 263 296 332 295 263 227 309 324 306 307 322 7 337 331 354 336 336 342 343 352
55 214 178 48 39 56 93 35 59 109 36 332 230 140 184 209 283 308 323 356 15 318 26 15 21 302 292 278 251 287 346 332 316 355 301 297 304 320 304 283 296 260 250 257 274 280 292 290 297 303 302 300 293 284 274 267 275 268 274 267 263 261 262 257 260 238 209 232 285 358 7 337 356 327 331 334 325 330 335 315 296 306 331 333 341 351
114 357 98 138 104 66 70 100 232 93 133 73 314 159 133 155 163 340 342 16 20 83 344 31 70 278 329 296 268 338 331 302 315 317 282 296 296 310 276 281 285 289 304 286 265 275 286 285 291 291 288 286 295 284 296 298 284 279 273 272 262 256 257 258 265 253 226 238 214 229 228 214 235 244 276 232 235 251 288 292 293 292 311 304 346 340
51 359 33 38 58 56 43 35 321 112 90 357 109 128 94 95 58 342 77 63 226 302 266 42 78 230 318 295 293 298 319 300 310 299 293 285 288 285 287 283 280 279 256 268 290 289 273 268 261 274 288 296 281 289 306 297 297 287 288 291 285 274 265 251 257 261 224 225 238 230 239 229 231 218 250 274 282 249 267 303 299 305 295 315 298 314
80 328 27 27 66 56 57 236 189 134 143 235 182 162 220 200 188 122 90 82 214 336 301 343 344 86 265 265 318 3 343 323 293 275 278 285 284 279 287 287 288 271 263 244 267 278 286 287 286 277 291 292 296 291 287 289 292 297 296 294 289 279 267 266 239 234 235 222 218 220 224 258 248 238 251 271 278 289 286 295 298 311 307 304 312 288
334 130 209 114 90 30 253 335 189 156 27 291 131 96 80 80 84 138 126 79 339 56 296 328 347 33 286 277 342 331 281 279 261 264 266 251 262 286 294 296 289 288 287 254 241 266 280 277 282 280 284 289 280 284 282 279 287 290 301 302 303 283 267 261 247 226 224 218 220 216 233 238 264 254 269 272 285 291 307 302 295 294 301 313 319 318
198 309 177 82 103 195 164 310 150 233 200 129 93 82 17 51 35 18 61 93 59 35 254 247 311 99 302 271 222 145 214 207 270 304 275 280 286 271 256 257 274 290 306 311 310 289 277 279 275 287 282 279 294 287 281 290 289 292 298 304 305 283 279 258 249 217 231 210 202 218 223 227 242 256 258 288 287 283 303 298 302 307 301 289 285 298
57 13 42 323 47 68 117 112 15 118 10 118 145 157 105 301 5 27 338 36 75 288 253 241 270 315 194 291 290 234 263 215 187 217 254 273 268 266 282 282 280 290 293 300 301 299 303 311 304 287 290 299 298 308 305 297 303 302 301 306 303 297 281 250 237 222 238 216 219 224 226 228 233 235 241 243 257 268 270 276 284 298 315 302 288 281
39 39 263 334 247 81 40 87 325 356 12 84 77 31 86 296 33 333 14 7 33 200 173 184 205 44 232 226 225 279 243 245 214 210 207 226 260 269 273 279 291 289 295 292 292 295 300 292 294 307 304 310 306 301 300 299 303 299 295 291 302 292 297 276 232 229 240 228 231 224 226 236 236 231 231 238 247 254 250 258 267 283 285 298 315 287
265 279 24 296 90 353 107 74 321 29 299 29 57 33 62 33 35 347 276 223 299 302 253 151 284 256 251 278 228 231 244 213 223 225 227 229 239 258 268 293 298 296 286 279 282 281 276 278 283 281 279 282 286 289 289 293 295 296 295 294 275 279 289 291 272 246 247 240 238 227 228 235 230 240 228 235 237 247 234 237 247 249 250 265 259 278
53 354 324 18 19 9 49 90 164 209 355 314 190 114 146 133 146 309 243 301 245 253 276 289 27 236 47 233 193 212 229 260 253 250 242 238 242 247 270 275 274 277 280 266 271 273 274 279 276 282 284 280 277 279 288 287 282 289 289 292 289 292 292 293 286 278 264 263 242 233 230 234 223 235 235 241 233 242 239 232 235 247 246 241 256 247
186 212 278 333 258 17 23 271 114 93 58 260 174 126 55 43 155 70 212 166 282 334 332 286 209 190 197 247 291 283 305 291 267 269 261 262 236 240 279 269 267 269 271 277 272 280 279 266 278 281 279 276 274 276 278 278 273 275 272 275 273 268 283 292 294 285 265 272 266 245 238 236 229 234 238 253 248 245 231 240 225 245 240 238 250 261
11 58 294 315 28 78 270 172 358 198 48 286 60 58 146 132 96 97 76 97 105 56 256 212 313 293 290 320 324 342 330 291 326 296 297 276 280 315 273 268 266 262 266 266 256 259 276 293 284 263 270 282 281 275 266 269 270 266 276 283 287 284 282 278 275 278 280 275 279 271 245 245 232 228 231 236 245 240 235 231 234 237 244 245 240 252
160 251 311 77 278 10 309 138 18 354 271 43 48 192 111 125 121 123 264 337 59 106 264 37 276 306 24 296 328 349 338 291 294 279 279 290 289 288 266 263 260 259 257 264 270 265 261 259 267 277 267 253 259 268 278 274 267 251 255 254 265 277 280 283 281 280 278 280 276 277 274 248 228 232 235 235 244 242 239 242 239 240 253 242 238 230
86 2 330 161 217 259 20 36 343 329 248 134 134 167 67 286 12 333 92 5 349 344 295 313 275 252 182 255 342 294 238 278 277 280 314 279 271 252 261 268 273 276 286 280 272 274 279 271 263 256 260 263 253 250 251 265 271 269 254 239 229 250 253 259 276 273 274 256 258 266 270 275 262 232 239 241 240 242 237 248 240 233 239 254 238 234
27 136 294 227 142 330 4 79 284 298 354 47 16 22 323 99 129 39 122 183 121 271 24 295 24 276 203 219 194 230 226 229 258 291 251 246 249 252 244 253 266 281 280 281 282 282 276 273 265 257 253 257 258 256 250 249 257 255 248 235 239 244 254 261 258 255 260 261 244 264 272 268 257 257 239 238 229 234 235 246 244 243 246 240 235 230
77 104 265 284 291 325 184 359 182 152 162 338 38 339 15 48 238 114 25 93 222 179 167 270 327 280 260 212 182 217 208 217 205 228 248 256 262 255 252 253 265 265 268 272 274 279 283 281 279 273 259 258 268 266 271 263 252 251 247 242 233 233 247 244 249 244 250 250 249 241 255 263 268 265 249 252 233 237 246 246 240 240 239 248 242 226
68 11 230 301 4 271 224 220 214 138 305 189 157 206 173 115 94 75 281 22 66 73 227 106 270 276 278 171 204 212 227 217 236 220 255 268 265 266 269 265 248 265 267 265 274 275 281 285 285 287 292 284 281 279 271 267 268 267 254 245 237 228 249 248 256 235 246 238 239 241 247 249 250 248 251 254 257 251 254 252 243 239 231 229 247 214
127 152 84 289 206 235 270 28 357 89 107 167 155 279 132 70 105 94 13 274 47 272 101 149 351 272 244 209 219 243 266 247 246 206 255 269 275 276 273 270 274 251 263 275 274 278 277 277 281 289 293 293 285 279 280 280 262 257 260 259 248 231 256 237 248 251 244 251 251 252 248 249 253 244 241 242 253 253 255 254 254 238 233 241 247 226
99 62 15 283 311 309 335 353 65 65 132 18 88 65 99 182 192 180 167 172 135 132 109 13 233 254 282 257 238 249 259 270 259 228 243 267 273 273 272 281 282 285 277 268 271 273 273 276 282 286 287 290 291 288 282 277 278 273 268 260 257 243 255 263 253 255 249 249 254 255 262 257 258 256 253 246 247 248 252 252 253 241 238 247 250 247
55 304 112 324 357 337 340 350 358 331 80 185 216 202 168 90 78 151 104 12 312 216 170 131 242 273 270 324 291 267 286 286 272 253 208 245 262 264 271 272 270 272 280 284 281 278 282 281 279 278 278 278 283 284 279 279 276 275 273 269 252 250 250 254 256 251 252 247 259 264 255 260 258 259 259 254 255 251 252 252 252 248 244 249 255 251
81 215 104 75 50 340 310 316 279 308 250 236 156 114 231 143 139 132 211 35 202 278 133 180 255 253 263 299 307 289 306 292 270 262 249 217 251 270 275 272 273 275 272 275 280 285 280 281 287 284 277 275 270 268 276 275 271 268 264 262 252 259 262 250 243 239 248 248 250 261 258 258 259 251 252 255 259 256 253 251 247 250 251 235 255 259
139 357 177 156 157 197 212 206 245 93 49 230 225 174 198 199 163 97 95 114 209 197 190 235 221 288 294 288 291 283 256 262 287 293 278 273 257 249 254 265 270 272 275 276 276 278 287 286 278 276 277 268 268 265 261 262 265 262 261 266 259 244 251 260 249 241 236 246 242 257 256 254 251 248 250 250 252 258 259 253 248 244 249 240 242 253
67 311 255 188 241 243 251 262 206 173 251 255 239 241 198 176 182 158 169 218 164 88 284 230 229 235 267 290 296 298 302 297 284 278 283 282 279 276 276 279 279 279 276 275 275 273 272 275 278 275 272 274 268 264 260 253 249 253 254 260 268 261 251 257 251 249 242 240 247 245 252 246 245 247 248 252 257 258 259 261 257 248 247 241 243 244
143 189 270 126 268 262 260 257 253 264 229 254 235 227 195 199 177 196 228 194 147 187 240 245 132 232 270 275 278 284 282 285 293 292 294 290 288 290 292 289 287 283 282 280 272 269 265 267 268 270 268 264 265 263 263 262 258 251 253 251 258 266 260 254 251 255 250 249 245 246 243 246 245 243 248 250 255 258 256 255 255 256 250 241 243 241
107 249 201 155 267 289 285 298 303 228 275 261 246 236 224 187 208 212 232 198 196 235 249 274 284 277 275 277 276 275 283 289 289 293 294 292 283 286 287 282 277 277 275 273 274 273 266 262 266 265 268 272 268 269 269 267 263 257 250 254 250 249 258 245 249 252 258 252 249 250 245 242 245 243 241 245 246 248 251 253 254 253 252 247 241 244
122 278 129 122 335 284 294 337 8 220 207 268 251 234 224 214 222 223 238 243 227 268 266 264 277 279 274 263 268 278 281 288 295 282 278 279 284 280 279 278 277 275 276 277 276 274 267 267 265 267 267 264 263 259 259 256 261 263 260 257 256 252 254 223 249 251 250 255 253 253 252 246 245 240 242 240 244 248 248 248 246 248 250 249 244 241
43 251 51 77 348 300 327 13 303 277 246 245 278 258 212 192 213 219 204 216 178 225 246 290 275 260 263 283 251 254 269 278 269 277 286 291 287 271 272 277 279 278 279 278 280 280 279 275 272 265 262 262 259 255 250 254 254 257 258 255 249 248 245 230 239 245 248 250 258 257 252 250 249 246 246 242 244 242 244 245 244 245 244 247 246 240
171 131 149 62 336 260 262 5 317 325 333 307 273 262 188 194 203 318 255 223 212 198 203 224 237 237 264 336 324 293 275 270 267 265 278 288 283 258 262 272 276 276 274 277 279 280 277 273 271 269 267 266 263 258 252 242 252 250 247 249 249 250 241 238 239 246 252 252 250 255 253 251 251 250 250 242 240 240 241 241 244 243 242 243 240 235
101 110 135 165 203 256 283 321 323 358 310 245 234 172 136 173 196 216 235 211 215 174 212 206 240 276 296 277 260 263 279 275 282 275 218 246 283 295 287 268 264 271 275 274 269 268 272 274 268 263 258 258 261 255 257 245 235 249 250 249 263 247 248 242 248 239 251 256 254 252 251 253 252 254 252 246 242 238 240 238 242 240 237 243 239 230
148 101 150 138 171 276 319 341 354 261 245 234 212 199 199 198 183 206 242 243 214 212 238 270 265 262 257 255 258 260 258 281 309 292 288 270 243 248 263 279 279 267 266 272 275 270 261 259 267 266 266 260 251 255 257 259 241 251 264 246 249 244 247 246 250 250 247 253 257 252 249 249 249 254 256 250 243 240 241 237 244 242 238 230 234 232
158 135 162 321 161 350 10 84 275 237 243 287 287 348 157 97 168 195 285 264 236 205 211 232 246 254 261 266 267 261 292 300 310 285 265 262 250 237 246 255 263 266 262 255 253 262 266 258 251 254 256 257 262 259 249 255 260 253 259 254 240 255 247 252 253 256 251 251 253 249 245 242 249 252 255 253 246 241 243 238 235 241 235 229 239 237
151 96 118 244 158 222 198 179 243 322 321 307 328 210 170 175 175 159 247 281 226 193 194 222 241 254 262 261 262 280 8 350 320 289 276 226 247 228 220 237 244 256 257 263 252 254 257 263 263 259 262 269 267 268 261 261 267 265 276 281 266 253 258 257 259 257 251 252 253 247 242 238 243 251 254 250 249 246 243 239 238 240 225 232 236 235
16 158 231 153 263 126 211 307 329 355 268 283 242 297 247 220 147 190 58 293 245 210 194 202 226 242 251 261 267 283 80 12 311 288 296 267 230 244 237 238 255 259 263 264 273 268 264 265 266 272 272 277 277 268 265 265 275 283 283 277 275 268 263 261 263 257 254 255 254 246 240 237 235 244 249 248 246 247 247 241 238 237 214 222 233 235
36 82 124 148 200 62 107 190 221 198 244 211 246 40 255 185 151 202 360 295 284 202 184 190 217 234 239 246 259 91 359 304 268 262 279 293 279 240 249 250 246 253 259 264 265 274 274 272 271 274 283 275 275 270 268 272 266 275 274 274 275 269 265 261 261 258 252 253 254 248 238 236 233 236 242 243 246 244 248 243 235 231 214 225 230 240
62 355 56 78 185 202 144 186 242 202 239 254 218 274 226 143 149 45 340 280 267 224 198 181 208 226 238 235 185 165 213 278 292 284 262 277 292 261 244 277 278 273 270 263 263 254 263 275 291 286 278 272 267 271 279 276 264 259 265 270 271 274 266 260 256 256 255 254 254 249 240 232 231 234 235 240 244 242 243 247 243 232 223 228 224 238
147 253 146 217 191 207 201 263 324 288 263 262 228 202 167 164 141 40 239 246 245 210 197 186 215 219 222 207 159 220 217 228 270 286 309 312 309 296 278 259 258 261 272 279 276 281 277 265 253 262 267 271 274 278 276 267 258 261 261 266 272 268 264 261 262 260 255 254 253 248 242 236 227 234 235 233 239 237 242 240 239 236 228 231 227 233
324 102 320 73 205 209 206 213 246 272 246 228 227 158 155 111 222 213 236 210 187 240 201 193 216 238 227 220 211 225 250 254 275 300 299 290 281 284 287 285 288 282 262 255 266 273 273 269 266 266 267 264 268 272 268 258 251 254 261 264 264 263 266 268 264 261 258 254 253 252 247 241 237 230 237 236 231 237 238 240 236 235 233 231 226 232
185 147 200 185 197 61 83 217 329 294 288 168 130 67 200 172 236 220 254 279 189 231 165 214 207 246 208 255 238 246 268 279 281 283 283 286 290 288 291 296 293 290 293 295 290 270 260 277 267 259 259 269 271 275 274 260 259 259 258 258 259 265 270 271 269 263 261 261 261 259 256 252 241 239 234 236 228 230 238 236 234 237 228 233 230 234
188 161 215 241 177 166 171 179 202 214 210 161 149 178 207 214 236 202 193 284 238 195 249 253 218 225 235 239 270 275 268 280 290 279 284 286 282 287 290 285 284 284 282 272 259 271 276 271 272 274 269 263 268 269 273 264 267 266 262 263 264 268 271 273 271 268 267 265 265 268 267 261 253 245 243 240 235 233 239 240 232 236 228 229 228 233
188 200 175 188 194 168 198 211 227 222 179 202 209 218 203 223 237 258 262 259 290 283 251 282 281 257 221 251 271 276 289 276 270 281 284 283 287 285 286 286 287 291 292 292 291 285 275 271 279 283 283 270 263 268 268 269 266 273 268 267 269 270 271 272 274 271 267 266 266 269 270 268 258 251 248 243 228 237 236 242 232 235 231 221 234 231
275 210 57 61 245 272 272 208 280 258 230 242 239 252 265 263 263 255 255 272 256 253 268 271 279 285 285 265 279 290 279 282 288 287 285 284 283 282 279 281 284 283 285 291 293 289 284 280 280 282 283 283 252 263 266 265 263 271 272 275 274 269 269 271 274 271 265 266 266 266 267 270 267 253 248 244 229 232 234 234 233 230 233 214 230 233
240 180 210 226 260 169 267 119 196 236 246 246 242 243 247 255 261 257 268 262 265 266 269 262 260 273 277 280 269 271 281 285 288 286 285 286 285 280 279 280 282 282 286 291 289 296 299 297 291 287 284 287 285 263 264 257 258 259 271 277 275 275 273 274 271 270 269 265 266 266 264 264 267 266 256 242 241 234 232 229 232 233 235 222 226 234
293 170 201 225 201 222 246 175 225 240 249 264 300 270 265 256 250 248 234 248 260 269 270 270 274 275 271 275 265 266 275 282 285 286 288 287 287 289 286 283 283 288 284 278 286 293 292 286 282 287 290 289 290 286 275 263 259 260 265 271 273 274 275 271 265 265 268 264 264 266 264 264 266 266 266 256 237 241 238 229 223 229 231 223 221 227
175 119 221 166 210 253 282 265 262 289 283 267 240 245 255 257 267 272 266 256 262 264 263 265 250 253 266 263 274 273 277 279 276 278 283 287 289 287 284 284 285 282 286 289 285 287 285 292 293 289 289 287 289 287 283 275 271 268 267 269 272 275 278 277 271 265 265 265 265 265 262 261 264 262 262 262 252 241 238 236 228 231 241 234 222 222
104 216 162 106 251 259 253 230 122 257 271 271 184 224 240 250 253 260 268 278 274 273 272 273 273 242 238 254 255 258 262 272 278 279 281 284 285 286 289 288 286 285 283 279 283 284 286 285 284 289 293 292 290 287 283 277 270 266 264 267 271 275 279 282 282 275 268 262 260 263 264 263 261 260 260 260 261 262 259 239 233 237 238 250 227 226
208 213 143 218 231 252 256 148 180 231 253 267 259 249 258 250 248 270 272 262 260 258 261 272 284 287 266 254 239 244 257 266 276 282 285 285 284 286 287 288 291 292 287 288 293 290 286 286 291 294 294 292 295 292 288 284 279 275 271 266 269 274 275 278 280 280 277 268 262 259 259 262 264 262 258 257 256 255 261 274 247 230 236 243 247 236